(278331) = 2007 HY68 = 2003 MZ11

Discovered at Siding Spring on 2007-04-23 by Siding Spring Survey.

Orbit

Orbit type: Main Belt

Note: WebGL enabled browser required.

epoch2023-02-25.0
epoch JD2460000.5
perihelion date2019-09-28.73826
perihelion JD2458755.23826
argument of perihelion (°)93.46946
ascending node (°)173.57338
inclination (°)13.15333
eccentricity0.1931384
perihelion distance (AU)2.0550356
Tisserand w.r.t. Jupiter3.4
ΔV w.r.t. Earth (km/sec)9.8
semimajor axis (AU)2.5469494
mean anomaly (°)301.94930
mean daily motion (°/day)0.24247860
aphelion distance (AU)3.039
period (years)4.06
P-vector [x]-0.04865813
P-vector [y]-0.98273629
P-vector [z]-0.17849866
Q-vector [x]0.99849068
Q-vector [y]-0.04330198
Q-vector [z]-0.03378326
absolute magnitude16.6
phase slope0.15
uncertainty0
referenceMPO 745323
observations used490
oppositions13
arc length (days)8748
first opposition used1999
last opposition used2023
residual rms (arc-secs)0.77
perturbers coarse indicatorM-v
perturbers precise indicator003Ek
first observation date used1999-07-12.0
last observation date used2023-06-24.0
computer nameMPCLINUX
Minimum Orbit Intersection Distances (in AU)
for orbit epoch: 2460000.5, reference: E2023-MD7
Mercury1.61574
Venus1.35986
Earth1.08973
Mars0.65692
Jupiter2.18856
Saturn6.12203
Uranus15.7523
Neptune27.0097

Observations

477 total observations over interval: 1999 07 12.24684 – 2023 06 24.197542
These data are available for download (format description).

Date (UT) J2000 RA J2000 Dec Magn Location Ref
1999 07 12.24684 18 10 51.61 +00 26 09.1 19.4   704 – Lincoln Laboratory ETS, New Mexico MPS 213889
1999 07 12.27145 18 10 50.51 +00 25 58.9 19.7   704 – Lincoln Laboratory ETS, New Mexico MPS 213889
1999 07 12.28376 18 10 50.08 +00 25 53.5 19.7   704 – Lincoln Laboratory ETS, New Mexico MPS 213889
1999 07 12.29607 18 10 49.51 +00 25 48.5 19.6   704 – Lincoln Laboratory ETS, New Mexico MPS 213889
2000 11 27.225500 03 06 22.403 +00 31 59.40 21.47 V 645 – Apache Point-Sloan Digital Sky Survey MPS 209128
2000 11 27.228972 03 06 22.243 +00 31 58.85 22.29   645 – Apache Point-Sloan Digital Sky Survey MPS 209128
2003 06 01.50746 17 33 59.75 +01 36 48.6 20.0   608 – Haleakala-AMOS MPS 209128
2003 06 01.51792 17 33 59.31 +01 36 51.7 20.5   608 – Haleakala-AMOS MPS 209128
2003 06 01.52840 17 33 58.82 +01 36 54.5 20.2   608 – Haleakala-AMOS MPS 209128
2003 06 29.26697 17 13 00.02 +01 48 57.2 19.0   704 – Lincoln Laboratory ETS, New Mexico MPS 82711
2003 06 29.27676 17 12 59.63 +01 48 55.6 19.5   704 – Lincoln Laboratory ETS, New Mexico MPS 82711
2003 06 29.28660 17 12 59.23 +01 48 53.9 19.3   704 – Lincoln Laboratory ETS, New Mexico MPS 82711
2003 06 29.29635 17 12 58.80 +01 48 50.6 19.2   704 – Lincoln Laboratory ETS, New Mexico MPS 82711
2003 06 29.30619 17 12 58.37 +01 48 48.2 19.5   704 – Lincoln Laboratory ETS, New Mexico MPS 82711
2003 07 05.22848 17 09 34.22 +01 18 56.4 19.0   704 – Lincoln Laboratory ETS, New Mexico MPS 82711
2003 07 05.23848 17 09 33.84 +01 18 53.1 19.1   704 – Lincoln Laboratory ETS, New Mexico MPS 82711
2003 07 05.24854 17 09 33.48 +01 18 47.0 19.3   704 – Lincoln Laboratory ETS, New Mexico MPS 82711
2003 07 05.25863 17 09 33.20 +01 18 43.7 19.0   704 – Lincoln Laboratory ETS, New Mexico MPS 82711
2003 07 05.26872 17 09 32.84 +01 18 41.7 18.6   704 – Lincoln Laboratory ETS, New Mexico MPS 82711
2003 07 23.24119 17 04 59.45 -01 02 35.2 19.1   644 – Palomar Mountain/NEAT MPS 209128
2003 07 23.26293 17 04 59.42 -01 02 47.3 19.1   644 – Palomar Mountain/NEAT MPS 209128
2003 07 23.28426 17 04 59.40 -01 02 59.3 18.9   644 – Palomar Mountain/NEAT MPS 209128
2004 11 05.326647 03 00 51.758 +01 11 20.58 20.86 V 645 – Apache Point-Sloan Digital Sky Survey MPS 390519
2004 11 05.330119 03 00 51.565 +01 11 19.18 21.85   645 – Apache Point-Sloan Digital Sky Survey MPS 390519
2004 11 10.311377 02 56 25.833 +00 41 41.76 20.63 V 645 – Apache Point-Sloan Digital Sky Survey MPS 390519
2004 11 10.314849 02 56 25.647 +00 41 40.50 21.54   645 – Apache Point-Sloan Digital Sky Survey MPS 390519
2004 12 12.169027 02 34 38.745 -00 37 49.26 21.28 V 645 – Apache Point-Sloan Digital Sky Survey MPS 390519
2004 12 12.172499 02 34 38.663 -00 37 49.16 22.08   645 – Apache Point-Sloan Digital Sky Survey MPS 390519
2007 04 23.60049 16 53 55.50 -02 55 54.0 18.8 V E12 – Siding Spring Survey MPS 208284
2007 04 23.60575 16 53 55.50 -02 55 49.5 19.0 V E12 – Siding Spring Survey MPS 208284
2007 04 23.61101 16 53 55.50 -02 55 46.0 18.9 V E12 – Siding Spring Survey MPS 208284
2007 04 25.40517 16 53 51.97 -02 36 19.5 19.0 V G96 – Mt. Lemmon Survey MPS 208284
2007 04 25.41079 16 53 51.97 -02 36 15.6 18.8 V G96 – Mt. Lemmon Survey MPS 208284
2007 04 25.41638 16 53 51.93 -02 36 11.9 18.6 V G96 – Mt. Lemmon Survey MPS 208284
2007 04 25.42197 16 53 51.90 -02 36 08.8 18.6 V G96 – Mt. Lemmon Survey MPS 208284
2007 05 07.40379 16 50 58.63 -00 28 58.9 18.7 V G96 – Mt. Lemmon Survey MPS 209128
2007 05 07.41259 16 50 58.38 -00 28 53.7 18.9 V G96 – Mt. Lemmon Survey MPS 209128
2007 05 07.42139 16 50 58.12 -00 28 48.6 18.6 V G96 – Mt. Lemmon Survey MPS 209128
2007 05 07.43026 16 50 57.91 -00 28 43.1 18.9 V G96 – Mt. Lemmon Survey MPS 209128
2007 05 09.41537 16 50 05.29 -00 08 54.7 19.6 V 691 – Steward Observatory, Kitt Peak-Spacewatch MPS 209128
2007 05 09.43295 16 50 04.74 -00 08 44.4 19.4 V 691 – Steward Observatory, Kitt Peak-Spacewatch MPS 209128
2007 05 09.45398 16 50 04.10 -00 08 32.0 19.5 V 691 – Steward Observatory, Kitt Peak-Spacewatch MPS 209128
2007 05 26.31108 16 39 12.06 +02 08 26.5 18.5 V 703 – Catalina Sky Survey MPS 210466
2007 05 26.32088 16 39 11.52 +02 08 30.7 19.0 V 703 – Catalina Sky Survey MPS 210466
2007 05 26.33068 16 39 11.08 +02 08 32.8 18.9 V 703 – Catalina Sky Survey MPS 210466
2007 05 26.34047 16 39 10.58 +02 08 35.8 18.3 V 703 – Catalina Sky Survey MPS 210466
2007 06 05.30793 16 31 21.10 +02 52 10.8 17.9 V 703 – Catalina Sky Survey MPS 210587
2007 06 05.31544 16 31 20.82 +02 52 12.6 18.5 V 703 – Catalina Sky Survey MPS 210587
2007 06 05.32297 16 31 20.35 +02 52 14.3 18.3 V 703 – Catalina Sky Survey MPS 210587
2007 06 05.33051 16 31 19.95 +02 52 15.0 18.7 V 703 – Catalina Sky Survey MPS 210587
2008 09 24.40356 03 04 57.75 +05 39 58.0 20.8 V G96 – Mt. Lemmon Survey MPS 256776
2008 09 24.41211 03 04 57.61 +05 39 54.2 20.8 V G96 – Mt. Lemmon Survey MPS 256776
2008 09 24.42067 03 04 57.39 +05 39 50.5 21.3 V G96 – Mt. Lemmon Survey MPS 256776
2008 09 24.42929 03 04 57.25 +05 39 46.3 21.9 V G96 – Mt. Lemmon Survey MPS 256776
2008 09 28.03954 03 03 42.60 +05 11 25.6 19.6 V A50 – Andrushivka Astronomical Observatory MPS 258023
2008 09 28.04116 03 03 42.57 +05 11 25.1 20.0 V A50 – Andrushivka Astronomical Observatory MPS 258023
2008 09 28.08612 03 03 41.45 +05 11 03.2 19.9 V A50 – Andrushivka Astronomical Observatory MPS 258023
2008 10 26.36535 02 44 39.76 +01 18 19.9 20.2 V G96 – Mt. Lemmon Survey MPS 261636
2008 10 26.37108 02 44 39.44 +01 18 16.7 20.4 V G96 – Mt. Lemmon Survey MPS 261636
2008 10 26.37681 02 44 39.15 +01 18 14.6 19.9 V G96 – Mt. Lemmon Survey MPS 261636
2008 10 26.38265 02 44 38.83 +01 18 11.9 20.1 V G96 – Mt. Lemmon Survey MPS 261636
2011 04 23.37117 16 02 30.61 -01 31 29.2 19.2 V 691 – Steward Observatory, Kitt Peak-Spacewatch MPS 380069
2011 04 23.38887 16 02 30.16 -01 31 17.1 19.1 V 691 – Steward Observatory, Kitt Peak-Spacewatch MPS 380069
2011 04 23.41005 16 02 29.68 -01 31 02.5 19.5 V 691 – Steward Observatory, Kitt Peak-Spacewatch MPS 380069
2011 04 27.38584 16 00 52.39 -00 45 47.9 19.4 V 691 – Steward Observatory, Kitt Peak-Spacewatch MPS 380069
2011 04 27.40354 16 00 51.85 -00 45 35.8 19.5 V 691 – Steward Observatory, Kitt Peak-Spacewatch MPS 380069
2011 04 27.42126 16 00 51.19 -00 45 25.8 18.8 V 691 – Steward Observatory, Kitt Peak-Spacewatch MPS 380069
2011 04 30.49633 15 59 19.196 -00 11 09.64 20.1 g F51 – Pan-STARRS 1, Haleakala MPS 381220
2011 04 30.50815 15 59 18.775 -00 11 01.95 20.1 g F51 – Pan-STARRS 1, Haleakala MPS 381220
2011 04 30.52429 15 59 18.214 -00 10 51.31 19.3 r F51 – Pan-STARRS 1, Haleakala MPS 381220
2011 04 30.53542 15 59 17.823 -00 10 43.95 19.0 r F51 – Pan-STARRS 1, Haleakala MPS 381220
2011 05 01.35014 15 58 51.23 -00 01 51.1 19.2 V 691 – Steward Observatory, Kitt Peak-Spacewatch MPS 381220
2011 05 01.36786 15 58 50.58 -00 01 39.5 19.3 V 691 – Steward Observatory, Kitt Peak-Spacewatch MPS 381220
2011 05 01.38558 15 58 49.95 -00 01 28.0 19.4 V 691 – Steward Observatory, Kitt Peak-Spacewatch MPS 381220
2011 05 05.29828 15 56 29.63 +00 40 03.5 18.9   704 – Lincoln Laboratory ETS, New Mexico MPS 381220
2011 05 05.31854 15 56 28.78 +00 40 15.6 19.2   704 – Lincoln Laboratory ETS, New Mexico MPS 381220
2011 05 05.32857 15 56 28.42 +00 40 21.5 19.0   704 – Lincoln Laboratory ETS, New Mexico MPS 381220
2011 05 05.33771 15 56 28.03 +00 40 27.6   691 – Steward Observatory, Kitt Peak-Spacewatch MPS 381220
2011 05 05.33859 15 56 28.00 +00 40 28.1 19.0   704 – Lincoln Laboratory ETS, New Mexico MPS 381220
2011 05 05.35541 15 56 27.30 +00 40 38.6   691 – Steward Observatory, Kitt Peak-Spacewatch MPS 381220
2011 05 05.37662 15 56 26.27 +00 40 53.9   691 – Steward Observatory, Kitt Peak-Spacewatch MPS 381220
2011 05 11.44648 15 52 16.145 +01 39 56.99 19.0 i F51 – Pan-STARRS 1, Haleakala MPS 385758
2011 05 11.45852 15 52 15.586 +01 40 03.58 18.8 i F51 – Pan-STARRS 1, Haleakala MPS 385758
2011 05 24.39064 15 42 20.41 +03 15 18.9 18.8 V 703 – Catalina Sky Survey MPS 383955
2011 05 24.39809 15 42 20.08 +03 15 20.1 19.3 V 703 – Catalina Sky Survey MPS 383955
2011 05 24.40565 15 42 19.69 +03 15 23.6 20.1 V 703 – Catalina Sky Survey MPS 383955
2011 05 27.27864 15 40 08.94 +03 29 38.0 19.1   704 – Lincoln Laboratory ETS, New Mexico MPS 384623
2011 05 27.28988 15 40 08.39 +03 29 41.8 18.8   704 – Lincoln Laboratory ETS, New Mexico MPS 384623
2011 05 27.30088 15 40 07.80 +03 29 43.5 19.0   704 – Lincoln Laboratory ETS, New Mexico MPS 384623
